Date String (YYYY-MM-DD hh:mm:ss) UTC,Instrument flags,absolute air pressure of the measurement (hPa),sample flow rate (lpm),inlet stack bypass flow (lpm),air temperature of the measurement (°C),ambient temperature measured by the external sensor (°C),aerosol sample conditioner tube jacket temperature (°C),OPC LED temperature (°C),internal box temperature (°C),relative humidity of the measurement (%),span deviation,mass concentration of particles derived from Lorenz-Mie calculation of OPC scattering (μg/m³),mass concentration of particles derived from Lorenz-Mie calculation of OPC scattering (μg/m³),mass concentration of particles derived from Lorenz-Mie calculation of OPC scattering (μg/m³)
DateTimeUTC,F1_M11,P_M11,Q1_M11,Q2_M11,T1_M11,T2_M11,T3_M11,T4_M11,T5_M11,U1_M11,ZSPAN_M11,X0_M11,X2_M11,X1_M11
2024-03-23 02:00:00,SystemResetWarning,0827.1,5.01,000.00,025.2,024.4,000.0,033.8,027.1,08.9,0000.0,0012.01,0003.97,0001.76
2024-03-23 02:01:00,SystemResetWarning,0827.1,5.00,000.00,025.2,024.4,000.0,033.8,027.1,08.7,0000.0,0011.70,0004.06,0001.78
2024-03-23 02:02:00,SystemResetWarning,0827.1,5.01,000.00,025.2,024.4,000.0,033.8,027.1,08.5,0000.0,0011.96,0004.13,0001.80
2024-03-23 02:03:00,SystemResetWarning,0827.1,4.99,000.00,025.2,024.4,000.0,033.8,027.0,08.7,0000.0,0012.26,0004.09,0001.79
2024-03-23 02:04:00,SystemResetWarning,0827.1,5.00,000.00,025.2,024.4,000.0,033.8,027.1,08.5,0000.0,0013.38,0004.14,0001.79
2024-03-23 02:05:00,SystemResetWarning,0827.0,4.99,000.00,025.2,024.4,000.0,033.8,027.0,08.6,0000.0,0014.06,0004.12,0001.80
2024-03-23 02:06:00,SystemResetWarning,0827.0,5.00,000.00,025.2,024.4,000.0,033.8,027.0,08.6,0000.0,0014.16,0004.15,0001.80
2024-03-23 02:07:00,SystemResetWarning,0827.0,5.01,000.00,025.2,024.4,000.0,033.8,027.0,09.2,0000.0,0014.60,0004.17,0001.81
2024-03-23 02:08:00,SystemResetWarning,0827.1,5.01,000.00,025.2,024.4,000.0,033.7,027.0,09.6,0000.0,0014.82,0004.17,0001.80
2024-03-23 02:09:00,SystemResetWarning,0827.1,5.00,000.00,025.2,024.4,000.0,033.7,027.0,09.9,0000.0,0014.56,0004.11,0001.80
2024-03-23 02:10:00,SystemResetWarning,0827.1,4.99,000.00,025.2,024.4,000.0,033.7,027.0,10.4,0000.0,0014.13,0004.10,0001.79
2024-03-23 02:11:00,SystemResetWarning,0827.1,4.99,000.00,025.2,024.4,000.0,033.7,027.0,10.4,0000.0,0013.93,0004.12,0001.79
2024-03-23 02:12:00,SystemResetWarning,0827.1,5.00,000.00,025.2,024.4,000.0,033.7,027.0,09.8,0000.0,0014.40,0004.08,0001.78
2024-03-23 02:13:00,SystemResetWarning,0827.1,5.01,000.00,025.2,024.4,000.0,033.7,027.0,09.9,0000.0,0014.14,0004.00,0001.78
2024-03-23 02:14:00,SystemResetWarning,0827.1,5.01,000.00,025.2,024.4,000.0,033.7,027.0,10.2,0000.0,0013.83,0004.02,0001.78
2024-03-23 02:15:00,SystemResetWarning,0827.1,5.00,000.00,025.2,024.4,000.0,033.7,027.0,10.0,0000.0,0012.89,0004.09,0001.80
2024-03-23 02:16:00,SystemResetWarning,0827.1,5.00,000.00,025.2,024.4,000.0,033.7,027.0,09.2,0000.0,0011.95,0004.09,0001.79
2024-03-23 02:17:00,SystemResetWarning,0827.1,4.99,000.00,025.2,024.4,000.0,033.7,027.0,09.0,0000.0,0011.75,0004.05,0001.76
2024-03-23 02:18:00,SystemResetWarning,0827.1,4.99,000.00,025.2,024.4,000.0,033.7,027.0,09.1,0000.0,0011.21,0004.10,0001.74
2024-03-23 02:19:00,SystemResetWarning,0827.2,4.99,000.00,025.2,024.4,000.0,033.7,027.0,09.4,0000.0,0010.99,0004.07,0001.74
2024-03-23 02:20:00,SystemResetWarning,0827.2,5.00,000.00,025.2,024.4,000.0,033.7,027.0,09.9,0000.0,0010.88,0004.07,0001.74
2024-03-23 02:21:00,SystemResetWarning,0827.2,5.01,000.00,025.2,024.4,000.0,033.7,027.0,10.1,0000.0,0010.87,0004.09,0001.73
2024-03-23 02:22:00,SystemResetWarning,0827.3,5.00,000.00,025.2,024.4,000.0,033.7,027.0,10.1,0000.0,0011.62,0004.13,0001.74
2024-03-23 02:23:00,SystemResetWarning,0827.3,5.00,000.00,025.2,024.4,000.0,033.7,027.0,10.8,0000.0,0010.96,0004.16,0001.73
2024-03-23 02:24:00,SystemResetWarning,0827.4,5.00,000.00,025.1,024.4,000.0,033.7,027.0,10.5,0000.0,0010.65,0004.17,0001.73
2024-03-23 02:25:00,SystemResetWarning,0827.3,5.00,000.00,025.1,024.4,000.0,033.7,027.0,10.1,0000.0,0010.70,0004.13,0001.73
2024-03-23 02:26:00,SystemResetWarning,0827.4,5.00,000.00,025.1,024.3,000.0,033.7,027.0,09.7,0000.0,0010.76,0004.06,0001.71
2024-03-23 02:27:00,SystemResetWarning,0827.3,5.00,000.00,025.2,024.3,000.0,033.7,027.0,09.4,0000.0,0011.57,0004.08,0001.72
2024-03-23 02:28:00,SystemResetWarning,0827.3,5.00,000.00,025.1,024.3,000.0,033.7,027.0,09.1,0000.0,0012.11,0004.10,0001.75
2024-03-23 02:29:00,SystemResetWarning,0827.4,5.00,000.00,025.2,024.3,000.0,033.7,027.0,08.8,0000.0,0011.89,0004.02,0001.75
2024-03-23 02:30:00,SystemResetWarning,0827.4,5.00,000.00,025.2,024.3,000.0,033.7,027.0,08.9,0000.0,0012.12,0004.01,0001.75
2024-03-23 02:31:00,SystemResetWarning,0827.4,5.01,000.00,025.1,024.3,000.0,033.7,027.0,09.1,0000.0,0012.60,0004.01,0001.77
2024-03-23 02:32:00,SystemResetWarning,0827.4,5.00,000.00,025.1,024.3,000.0,033.7,027.0,09.3,0000.0,0012.99,0003.99,0001.79
2024-03-23 02:33:00,SystemResetWarning,0827.3,5.00,000.00,025.2,024.4,000.0,033.7,027.0,09.3,0000.0,0013.14,0003.96,0001.80
2024-03-23 02:34:00,SystemResetWarning,0827.3,5.00,000.00,025.2,024.4,000.0,033.7,027.0,09.1,0000.0,0013.52,0003.95,0001.82
2024-03-23 02:35:00,SystemResetWarning,0827.4,5.00,000.00,025.2,024.4,000.0,033.7,027.0,09.1,0000.0,0013.85,0003.91,0001.83
2024-03-23 02:36:00,SystemResetWarning,0827.4,5.01,000.00,025.2,024.4,000.0,033.7,027.0,09.1,0000.0,0014.17,0003.96,0001.86
2024-03-23 02:37:00,SystemResetWarning,0827.4,5.00,000.00,025.2,024.4,000.0,033.7,027.0,09.2,0000.0,0015.38,0004.03,0001.87
2024-03-23 02:38:00,SystemResetWarning,0827.4,4.99,000.00,025.2,024.4,000.0,033.7,027.0,09.3,0000.0,0015.31,0004.00,0001.86
2024-03-23 02:39:00,SystemResetWarning,0827.4,4.98,000.00,025.2,024.4,000.0,033.7,027.0,09.4,0000.0,0014.73,0003.99,0001.87
2024-03-23 02:40:00,SystemResetWarning,0827.3,5.00,000.00,025.2,024.4,000.0,033.7,027.0,09.4,0000.0,0015.09,0004.07,0001.90
2024-03-23 02:41:00,SystemResetWarning,0827.3,5.01,000.00,025.2,024.4,000.0,033.7,027.0,09.4,0000.0,0015.06,0004.09,0001.93
2024-03-23 02:42:00,SystemResetWarning,0827.2,5.01,000.00,025.2,024.4,000.0,033.7,027.0,09.4,0000.0,0015.17,0004.15,0001.93
2024-03-23 02:43:00,SystemResetWarning,0827.3,4.98,000.00,025.2,024.4,000.0,033.7,027.0,09.4,0000.0,0015.58,0004.19,0001.94
2024-03-23 02:44:00,SystemResetWarning,0827.3,5.00,000.00,025.2,024.4,000.0,033.7,027.0,09.4,0000.0,0014.70,0004.23,0001.95
2024-03-23 02:45:00,SystemResetWarning,0827.3,5.00,000.00,025.2,024.4,000.0,033.7,027.0,09.6,0000.0,0014.51,0004.24,0001.97
2024-03-23 02:46:00,SystemResetWarning,0827.3,5.01,000.00,025.2,024.4,000.0,033.7,027.0,09.5,0000.0,0013.94,0004.25,0001.97
2024-03-23 02:47:00,SystemResetWarning,0827.3,4.99,000.00,025.2,024.4,000.0,033.7,027.0,09.5,0000.0,0014.36,0004.26,0001.97
2024-03-23 02:48:00,SystemResetWarning,0827.3,4.99,000.00,025.2,024.4,000.0,033.7,027.0,09.8,0000.0,0013.79,0004.22,0001.98
2024-03-23 02:49:00,SystemResetWarning,0827.3,5.00,000.00,025.2,024.4,000.0,033.7,027.0,10.7,0000.0,0013.07,0004.19,0002.01
2024-03-23 02:50:00,SystemResetWarning,0827.3,5.01,000.00,025.2,024.4,000.0,033.7,027.0,10.9,0000.0,0013.43,0004.20,0002.03
2024-03-23 02:51:00,SystemResetWarning,0827.3,5.01,000.00,025.2,024.4,000.0,033.7,027.1,10.7,0000.0,0013.44,0004.13,0002.04
2024-03-23 02:52:00,SystemResetWarning,0827.3,5.00,000.00,025.2,024.4,000.0,033.7,027.0,11.1,0000.0,0014.49,0004.15,0002.07
2024-03-23 02:53:00,SystemResetWarning,0827.4,5.00,000.00,025.2,024.4,000.0,033.7,027.0,11.2,0000.0,0014.14,0004.13,0002.10
2024-03-23 02:54:00,SystemResetWarning,0827.4,5.00,000.00,025.2,024.4,000.0,033.7,027.0,11.1,0000.0,0013.83,0004.12,0002.12
2024-03-23 02:55:00,SystemResetWarning,0827.4,5.00,000.00,025.2,024.4,000.0,033.7,027.0,11.0,0000.0,0015.37,0004.11,0002.14
2024-03-23 02:56:00,SystemResetWarning,0827.4,4.99,000.00,025.2,024.4,000.0,033.7,027.1,10.9,0000.0,0015.78,0004.11,0002.18
2024-03-23 02:57:00,SystemResetWarning,0827.4,4.99,000.00,025.2,024.4,000.0,033.7,027.1,10.9,0000.0,0016.04,0004.16,0002.21
2024-03-23 02:58:00,SystemResetWarning,0827.4,5.01,000.00,025.2,024.4,000.0,033.7,027.0,11.0,0000.0,0016.01,0004.25,0002.25
2024-03-23 02:59:00,SystemResetWarning,0827.4,5.01,000.00,025.2,024.4,000.0,033.7,027.1,11.1,0000.0,0016.43,0004.29,0002.27
